MAX VALIER SAT (42778 NORAD) Tracking and Keplerian Element Data

This shows tracking and keplerian element data for the satellite.

Feedback or suggestion? Click here.




ElementValue
Catalog42778
NameMAX VALIER SAT
Epoch Orbit5915
Epoch Day198.76530419
Epoch Year2018
RAAN257.968
Inclination97.4013
Eccentricity0.0011578
Argument of Perigee329.7468
Mean Anonmoly30.3098
Mean Motion15.21372251
Decay Rate8.28E-06
L11 42778U 17036P 18198.76530419 .00000828 00000-0 39972-4 0 9999
L22 42778 97.4013 257.9680 0011578 329.7468 30.3098 15.21372251 59154

Live tracking and technical data element details for MAX VALIER SAT (NORAD 42778). MAX VALIER SAT can be tracked NOW for your location showing map with azimuth and elevation plus other details from your city location.

Track the satellite on the map from your city or location and see movement details for azimuth, elevation, latitude, longitude, range, height, and movement on the map or in text.







IsCatalogInMostPopularTable: catalog: 42778, numindb: 79
Update: records affected: 1



GetName: 42778 MAX VALIER SAT

Hit Count: updated at: Thu, 19 Jul 2018 21:21:00 GMT